| time (UTC) | temp F | wind direction | speed MPH | gust MPH | rain 1hr in | rain 24hr in | rain mn in | humidity % | barometer mb |
| 20260906003035 | 68 | 360 | 0.0 | 0.0 | 0.00 | 0.00 | 0.00 | 69 | 1023.5 |
| 20260906001532 | 68 | 360 | 0.0 | 0.0 | 0.00 | 0.00 | 0.00 | 69 | 1023.6 |
| 20260906000029 | 69 | 360 | 0.0 | 0.0 | 0.00 | 0.00 | 0.00 | 67 | 1023.5 |
| 20260905234527 | 69 | 360 | 0.0 | 0.0 | 0.00 | 0.00 | 0.00 | 67 | 1023.4 |
| 20260905233033 | 69 | 360 | 0.0 | 0.0 | 0.00 | 0.00 | 0.00 | 67 | 1023.3 |
| 20260905231528 | 69 | 360 | 0.0 | 0.0 | 0.00 | 0.00 | 0.00 | 67 | 1023.3 |
| 20260905230025 | 70 | 360 | 0.0 | 0.0 | 0.00 | 0.00 | 0.00 | 66 | 1023.3 |
| 20260905224521 | 70 | 360 | 0.0 | 0.0 | 0.00 | 0.00 | 0.00 | 65 | 1023.2 |
| 20260905223019 | 70 | 360 | 0.0 | 0.0 | 0.00 | 0.00 | 0.00 | 64 | 1023.1 |
| 20260905221518 | 71 | 360 | 0.0 | 0.0 | 0.00 | 0.00 | 0.00 | 63 | 1022.9 |
| 20260905220016 | 71 | 360 | 0.0 | 0.0 | 0.00 | 0.00 | 0.00 | 63 | 1023.0 |
| 20260905214516 | 71 | 360 | 0.0 | 0.0 | 0.00 | 0.00 | 0.00 | 62 | 1022.7 |
| 20260905211512 | 72 | 360 | 0.0 | 0.0 | 0.00 | 0.00 | 0.00 | 60 | 1022.2 |
| 20260905210010 | 72 | 360 | 0.0 | 0.0 | 0.00 | 0.00 | 0.00 | 60 | 1022.0 |
| 20260905204508 | 72 | 360 | 0.0 | 0.0 | 0.00 | 0.00 | 0.00 | 60 | 1021.8 |
| 20260905203006 | 72 | 360 | 0.0 | 0.0 | 0.00 | 0.00 | 0.00 | 59 | 1021.8 |
| 20260905201505 | 72 | 360 | 0.0 | 0.0 | 0.00 | 0.00 | 0.00 | 59 | 1021.6 |
| 20260905200004 | 72 | 360 | 0.0 | 0.0 | 0.00 | 0.00 | 0.00 | 59 | 1021.4 |
| 20260905194503 | 72 | 360 | 0.0 | 0.0 | 0.00 | 0.00 | 0.00 | 59 | 1021.4 |
| 20260905193002 | 73 | 360 | 0.0 | 0.0 | 0.00 | 0.00 | 0.00 | 58 | 1021.3 |
| 20260905191500 | 73 | 360 | 0.0 | 0.0 | 0.00 | 0.00 | 0.00 | 57 | 1021.1 |
| 20260905190059 | 74 | 360 | 0.0 | 0.0 | 0.00 | 0.00 | 0.00 | 56 | 1020.9 |
| 20260905184601 | 74 | 360 | 0.0 | 0.0 | 0.00 | 0.00 | 0.00 | 56 | 1020.8 |
| 20260905183056 | 74 | 360 | 0.0 | 0.0 | 0.00 | 0.00 | 0.00 | 55 | 1020.5 |
| 20260905181554 | 75 | 360 | 0.0 | 0.0 | 0.00 | 0.00 | 0.00 | 55 | 1020.3 |
| 20260905180052 | 75 | 360 | 0.0 | 0.0 | 0.00 | 0.00 | 0.00 | 54 | 1020.0 |
| 20260905174552 | 76 | 360 | 0.0 | 0.0 | 0.00 | 0.00 | 0.00 | 52 | 1019.8 |
| 20260905173050 | 77 | 360 | 0.0 | 0.0 | 0.00 | 0.00 | 0.00 | 51 | 1019.7 |
| 20260905171558 | 79 | 360 | 0.0 | 2.0 | 0.00 | 0.00 | 0.00 | 49 | 1019.3 |
| 20260905170048 | 80 | 360 | 0.0 | 3.0 | 0.00 | 0.00 | 0.00 | 48 | 1019.2 |
| 20260905164548 | 80 | 360 | 1.0 | 5.0 | 0.00 | 0.00 | 0.00 | 47 | 1018.9 |
| 20260905163051 | 81 | 360 | 1.0 | 4.0 | 0.00 | 0.00 | 0.00 | 46 | 1018.6 |
| 20260905161542 | 82 | 360 | 1.0 | 11.0 | 0.00 | 0.00 | 0.00 | 45 | 1018.6 |
| 20260905160041 | 82 | 360 | 7.0 | 13.0 | 0.00 | 0.00 | 0.00 | 45 | 1018.4 |
| 20260905154545 | 83 | 360 | 6.0 | 16.0 | 0.00 | 0.00 | 0.00 | 45 | 1018.3 |
| 20260905153038 | 84 | 360 | 5.0 | 12.0 | 0.00 | 0.00 | 0.00 | 43 | 1018.2 |
| 20260905151538 | 85 | 360 | 6.0 | 11.0 | 0.00 | 0.00 | 0.00 | 42 | 1017.9 |
| 20260905150043 | 85 | 360 | 4.0 | 13.0 | 0.00 | 0.00 | 0.00 | 42 | 1017.9 |
| 20260905144538 | 86 | 360 | 4.0 | 10.0 | 0.00 | 0.00 | 0.00 | 42 | 1017.8 |
| 20260905143038 | 86 | 360 | 2.0 | 11.0 | 0.00 | 0.00 | 0.00 | 41 | 1017.6 |
| 20260905141537 | 86 | 360 | 6.0 | 13.0 | 0.00 | 0.00 | 0.00 | 42 | 1017.5 |
| 20260905140036 | 86 | 360 | 5.0 | 11.0 | 0.00 | 0.00 | 0.00 | 42 | 1017.7 |
| 20260905134534 | 86 | 360 | 6.0 | 15.0 | 0.00 | 0.00 | 0.00 | 41 | 1017.6 |
| 20260905133034 | 86 | 360 | 4.0 | 13.0 | 0.00 | 0.00 | 0.00 | 42 | 1017.7 |
| 20260905131537 | 87 | 360 | 7.0 | 16.0 | 0.00 | 0.00 | 0.00 | 42 | 1017.7 |
| 20260905130033 | 87 | 360 | 7.0 | 15.0 | 0.00 | 0.00 | 0.00 | 42 | 1017.7 |
| 20260905124534 | 86 | 360 | 7.0 | 14.0 | 0.00 | 0.00 | 0.00 | 42 | 1017.9 |
| 20260905123038 | 87 | 360 | 4.0 | 12.0 | 0.00 | 0.00 | 0.00 | 41 | 1017.9 |
| 20260905121537 | 86 | 360 | 6.0 | 16.0 | 0.00 | 0.00 | 0.00 | 43 | 1018.0 |
| 20260905120130 | 86 | 360 | 7.0 | 17.0 | 0.00 | 0.00 | 0.00 | 43 | 1018.0 |
| 20260905114529 | 86 | 360 | 7.0 | 19.0 | 0.00 | 0.00 | 0.00 | 43 | 1018.1 |
| 20260905113029 | 88 | 360 | 4.0 | 12.0 | 0.00 | 0.00 | 0.00 | 42 | 1017.8 |
| 20260905111529 | 90 | 360 | 5.0 | 17.0 | 0.00 | 0.00 | 0.00 | 41 | 1017.5 |
| 20260905110025 | 91 | 360 | 1.0 | 6.0 | 0.00 | 0.00 | 0.00 | 46 | 1017.4 |
| 20260905104524 | 90 | 360 | 2.0 | 10.0 | 0.00 | 0.00 | 0.00 | 46 | 1017.4 |
| 20260905103021 | 89 | 360 | 1.0 | 8.0 | 0.00 | 0.00 | 0.00 | 48 | 1017.6 |
| 20260905101518 | 89 | 360 | 2.0 | 5.0 | 0.00 | 0.00 | 0.00 | 47 | 1017.5 |
| 20260905100021 | 89 | 360 | 2.0 | 6.0 | 0.00 | 0.00 | 0.00 | 47 | 1017.4 |
| 20260905094513 | 89 | 360 | 2.0 | 9.0 | 0.00 | 0.00 | 0.00 | 46 | 1017.2 |
| 20260905093011 | 90 | 360 | 3.0 | 8.0 | 0.00 | 0.00 | 0.00 | 44 | 1017.0 |
| 20260905091506 | 90 | 360 | 2.0 | 8.0 | 0.00 | 0.00 | 0.00 | 42 | 1016.6 |
| 20260905090006 | 90 | 360 | 2.0 | 6.0 | 0.00 | 0.00 | 0.00 | 41 | 1016.6 |
| 20260905084607 | 90 | 360 | 1.0 | 6.0 | 0.00 | 0.00 | 0.00 | 40 | 1016.4 |
| 20260905083057 | 89 | 360 | 1.0 | 5.0 | 0.00 | 0.00 | 0.00 | 41 | 1016.4 |
| 20260905081553 | 89 | 360 | 0.0 | 4.0 | 0.00 | 0.00 | 0.00 | 39 | 1016.3 |
| 20260905080104 | 89 | 360 | 0.0 | 0.0 | 0.00 | 0.00 | 0.00 | 40 | 1016.2 |
| 20260905074556 | 88 | 360 | 0.0 | 0.0 | 0.00 | 0.00 | 0.00 | 43 | 1016.1 |
| 20260905073041 | 86 | 360 | 0.0 | 3.0 | 0.00 | 0.00 | 0.00 | 43 | 1015.9 |
| 20260905071542 | 85 | 360 | 1.0 | 4.0 | 0.00 | 0.00 | 0.00 | 44 | 1015.7 |
| 20260905070032 | 83 | 360 | 2.0 | 4.0 | 0.00 | 0.00 | 0.00 | 47 | 1015.6 |
| 20260905064527 | 82 | 360 | 3.0 | 5.0 | 0.00 | 0.00 | 0.00 | 49 | 1015.5 |
| 20260905063024 | 80 | 360 | 3.0 | 6.0 | 0.00 | 0.00 | 0.00 | 51 | 1015.4 |
| 20260905061528 | 78 | 360 | 3.0 | 5.0 | 0.00 | 0.00 | 0.00 | 54 | 1015.4 |
| 20260905060017 | 77 | 360 | 2.0 | 6.0 | 0.00 | 0.00 | 0.00 | 56 | 1015.4 |
| 20260905054513 | 75 | 360 | 1.0 | 4.0 | 0.00 | 0.00 | 0.00 | 58 | 1015.2 |
| 20260905053007 | 74 | 360 | 1.0 | 4.0 | 0.00 | 0.00 | 0.00 | 58 | 1015.1 |
| 20260905051503 | 74 | 360 | 3.0 | 5.0 | 0.00 | 0.00 | 0.00 | 58 | 1014.9 |
| 20260905050103 | 72 | 360 | 0.0 | 6.0 | 0.00 | 0.00 | 0.00 | 61 | 1015.0 |
| 20260905044553 | 71 | 360 | 0.0 | 0.0 | 0.00 | 0.00 | 0.00 | 62 | 1014.9 |
| 20260905043051 | 70 | 360 | 0.0 | 5.0 | 0.00 | 0.00 | 0.00 | 63 | 1014.9 |
| 20260905041550 | 70 | 360 | 2.0 | 6.0 | 0.00 | 0.00 | 0.00 | 64 | 1014.9 |
| 20260905034548 | 68 | 360 | 0.0 | 0.0 | 0.00 | 0.00 | 0.00 | 67 | 1014.6 |
| 20260905033053 | 68 | 360 | 0.0 | 0.0 | 0.00 | 0.00 | 0.00 | 67 | 1014.6 |
| 20260905031549 | 67 | 360 | 0.0 | 0.0 | 0.00 | 0.00 | 0.00 | 68 | 1014.6 |
| 20260905030049 | 67 | 360 | 0.0 | 0.0 | 0.00 | 0.00 | 0.00 | 69 | 1014.7 |
| 20260905024601 | 67 | 360 | 0.0 | 0.0 | 0.00 | 0.00 | 0.00 | 69 | 1014.6 |
| 20260905023048 | 67 | 360 | 0.0 | 0.0 | 0.00 | 0.00 | 0.00 | 70 | 1014.8 |
| 20260905021544 | 66 | 360 | 0.0 | 0.0 | 0.00 | 0.00 | 0.00 | 71 | 1014.8 |
| 20260905020042 | 66 | 360 | 0.0 | 0.0 | 0.00 | 0.00 | 0.00 | 72 | 1014.8 |
| 20260905014543 | 67 | 360 | 0.0 | 0.0 | 0.00 | 0.00 | 0.00 | 70 | 1014.8 |
| 20260905013101 | 67 | 360 | 0.0 | 0.0 | 0.00 | 0.00 | 0.00 | 71 | 1014.8 |
| 20260905011541 | 66 | 360 | 0.0 | 0.0 | 0.00 | 0.00 | 0.00 | 71 | 1014.9 |
| 20260905010039 | 66 | 360 | 0.0 | 0.0 | 0.00 | 0.00 | 0.00 | 71 | 1014.9 |
| 20260905004539 | 66 | 360 | 0.0 | 0.0 | 0.00 | 0.00 | 0.00 | 71 | 1014.9 |